Simultaneous Nadir Overpasses (SNOs) Predictions

Prediction of SNOs between AQUA and METOP-B Satellite Orbit:

Table of predicted SNOs for the next 14.0 days since TLE Epoch: 10/25/2015
Index Date (AQUA) Time (AQUA) Lat,Lon (AQUA) SZA (AQUA ) Date (METOP-B) Time (METOP-B) Lat,Lon (METOP-B) SZA (METOP-B ) Distance(km) Time Diff (sec)
1 10/25/2015 23:57:37 73.72, 175.04 85.88 10/25/2015 23:56:34 73.73, 175.07 85.90 1.52 63
2 10/26/2015 00:47:04 -73.80, -17.51 94.02 10/26/2015 00:47:14 -73.80, -17.43 94.02 2.52 10
3 10/26/2015 01:36:38 74.13, 149.40 86.33 10/26/2015 01:37:48 74.10, 150.63 86.29 37.57 70
4 10/28/2015 19:31:53 73.71,-118.51 86.83 10/28/2015 19:30:55 73.71,-118.55 86.84 1.25 58
5 10/28/2015 20:21:20 -73.79, 48.95 93.08 10/28/2015 20:21:35 -73.79, 48.96 93.08 0.57 15
6 10/28/2015 21:10:57 74.27,-144.51 87.43 10/28/2015 21:12:05 74.29,-142.49 87.43 60.85 68
7 10/31/2015 15:06:09 73.74, -52.14 87.78 10/31/2015 15:05:15 73.75, -52.06 87.79 2.49 54
8 10/31/2015 15:55:35 -73.77, 115.44 92.18 10/31/2015 15:55:56 -73.78, 115.34 92.17 3.47 21
9 10/31/2015 16:45:16 74.46, -78.51 88.55 10/31/2015 16:46:22 74.46, -75.62 88.53 86.01 66
10 11/03/2015 10:40:23 73.75, 14.28 88.69 11/03/2015 10:39:35 73.72, 14.29 88.67 3.00 48
11 11/03/2015 11:29:50 -73.83,-178.25 91.23 11/03/2015 11:30:15 -73.81,-178.19 91.24 2.93 25
12 11/06/2015 06:14:37 73.74, 80.73 89.55 11/06/2015 06:13:55 73.74, 80.74 89.55 0.27 42
13 11/06/2015 07:04:04 -73.81,-111.78 90.37 11/06/2015 07:04:35 -73.83,-111.72 90.36 2.41 31




NCC Satellite Simultaneous Nadir Overpasses (SNOs) Prediction Service
